CFG9DT EDDM-GCTS

Flight info

Callsign CFG9DT
Flight time N/A
Altitude 31000
Route ALG2S ALG Y109 UMTEX Y100 TRA/N0454F330 DCT LUTIX DCT BENOT DCT NEMOS DCT NINTU DCT MEBAK DCT REPSI DCT LERGA DCT MINSO DCT NARAK DCT AGN DCT PIPOR L866 PPN DCT MIRPO DCT DGO DCT NEA L14 ADINO DCT RAKOD/N0451F350 DCT ELVAR DCT GAIOS DCT TROIA DCT BEXAL UN866 KONBA
Aircraft A321/M-SDE3FGHIRWY/LB1

Departure

Time N/A
Airport Munich Airport (EDDM)

Arrival

Time 2026-05-06 11:49
Airport Tenerife Sur Airport (GCTS)
Time Latitude Longitude Altitude Speed Heading
2026-05-06 10:10 37.08504 -10.11046 35060 ft 433 kts 226°
2026-05-06 10:10 37.06373 -10.13643 35063 ft 433 kts 226°
2026-05-06 10:10 37.02040 -10.18924 35056 ft 432 kts 226°
2026-05-06 10:11 36.97745 -10.24161 35047 ft 433 kts 227°
2026-05-06 10:11 36.93417 -10.29427 35050 ft 435 kts 226°
2026-05-06 10:12 36.89064 -10.34708 35058 ft 436 kts 226°
2026-05-06 10:12 36.84697 -10.39997 35058 ft 437 kts 226°
2026-05-06 10:13 36.80360 -10.45243 35069 ft 437 kts 226°
2026-05-06 10:13 36.75986 -10.50522 35064 ft 437 kts 226°
2026-05-06 10:14 36.71610 -10.55800 35078 ft 437 kts 226°
2026-05-06 10:14 36.67235 -10.61058 35066 ft 438 kts 226°
2026-05-06 10:15 36.62839 -10.66348 35061 ft 440 kts 227°
2026-05-06 10:15 36.58428 -10.71663 35063 ft 441 kts 226°
2026-05-06 10:16 36.54001 -10.76962 35068 ft 442 kts 226°
2026-05-06 10:16 36.49560 -10.82256 35056 ft 442 kts 226°
2026-05-06 10:17 36.45129 -10.87541 35093 ft 441 kts 226°
2026-05-06 10:17 36.40710 -10.92819 35097 ft 441 kts 226°
2026-05-06 10:18 36.36307 -10.98059 35061 ft 442 kts 226°
2026-05-06 10:18 36.31845 -11.03359 35064 ft 445 kts 226°
2026-05-06 10:19 36.27361 -11.08676 35068 ft 447 kts 226°
2026-05-06 10:19 36.22861 -11.13996 35071 ft 448 kts 226°
2026-05-06 10:20 36.18359 -11.19310 35091 ft 446 kts 226°
2026-05-06 10:20 36.13860 -11.24611 35109 ft 446 kts 226°
2026-05-06 10:21 36.09375 -11.29893 35112 ft 445 kts 226°
2026-05-06 10:21 36.04917 -11.35150 35083 ft 447 kts 226°
2026-05-06 10:22 36.00404 -11.40459 35076 ft 449 kts 226°
2026-05-06 10:22 35.95746 -11.45653 35071 ft 453 kts 219°
2026-05-06 10:23 35.90603 -11.50161 35086 ft 453 kts 218°
2026-05-06 10:23 35.85465 -11.54676 35102 ft 453 kts 218°
2026-05-06 10:24 35.80330 -11.59180 35109 ft 453 kts 218°
2026-05-06 10:24 35.75185 -11.63681 35115 ft 453 kts 218°
2026-05-06 10:25 35.70055 -11.68159 35119 ft 453 kts 218°
2026-05-06 10:25 35.64933 -11.72638 35124 ft 451 kts 218°
2026-05-06 10:26 35.59836 -11.77078 35136 ft 448 kts 218°
2026-05-06 10:26 35.54749 -11.81496 35133 ft 446 kts 218°
2026-05-06 10:27 35.49686 -11.85896 35128 ft 446 kts 218°
2026-05-06 10:27 35.44627 -11.90283 35125 ft 445 kts 218°
2026-05-06 10:28 35.39571 -11.94664 35125 ft 444 kts 218°
2026-05-06 10:28 35.34553 -11.99003 35122 ft 444 kts 218°
2026-05-06 10:29 35.29498 -12.03375 35116 ft 445 kts 218°
2026-05-06 10:29 35.24429 -12.07741 35094 ft 446 kts 218°
2026-05-06 10:30 35.19344 -12.12111 35091 ft 448 kts 218°
2026-05-06 10:30 35.14242 -12.16490 35092 ft 449 kts 218°
2026-05-06 10:31 35.09126 -12.20884 35094 ft 449 kts 218°
2026-05-06 10:31 35.04047 -12.25233 35105 ft 448 kts 218°
2026-05-06 10:32 34.98933 -12.29604 35105 ft 448 kts 218°
2026-05-06 10:32 34.93831 -12.33966 35112 ft 448 kts 218°
2026-05-06 10:33 34.88732 -12.38327 35110 ft 448 kts 218°
2026-05-06 10:33 34.83617 -12.42684 35089 ft 448 kts 218°
2026-05-06 10:34 34.78493 -12.47030 35094 ft 450 kts 218°
2026-05-06 10:34 34.73348 -12.51379 35096 ft 451 kts 218°
2026-05-06 10:35 34.68188 -12.55752 35098 ft 452 kts 218°
2026-05-06 10:35 34.63023 -12.60125 35103 ft 452 kts 218°
2026-05-06 10:36 34.57883 -12.64471 35100 ft 453 kts 218°
2026-05-06 10:36 34.52712 -12.68827 35126 ft 451 kts 218°
2026-05-06 10:37 34.47559 -12.73173 35135 ft 450 kts 218°
2026-05-06 10:37 34.42417 -12.77500 35118 ft 450 kts 218°
2026-05-06 10:38 34.37258 -12.81830 35100 ft 452 kts 218°
2026-05-06 10:38 34.32070 -12.86165 35099 ft 454 kts 218°
2026-05-06 10:39 34.26876 -12.90502 35096 ft 454 kts 218°
2026-05-06 10:39 34.21696 -12.94859 35102 ft 453 kts 218°
2026-05-06 10:40 34.16560 -12.99204 35113 ft 453 kts 218°
2026-05-06 10:40 34.11395 -13.03574 35113 ft 453 kts 218°
2026-05-06 10:41 34.06226 -13.07925 35115 ft 453 kts 218°
2026-05-06 10:41 34.01048 -13.12255 35102 ft 452 kts 218°
2026-05-06 10:42 33.95882 -13.16582 35103 ft 453 kts 218°
2026-05-06 10:42 33.90698 -13.20922 35100 ft 454 kts 218°
2026-05-06 10:43 33.85503 -13.25266 35105 ft 455 kts 218°
2026-05-06 10:44 33.77688 -13.31798 35106 ft 456 kts 218°
2026-05-06 10:44 33.72475 -13.36141 35105 ft 456 kts 218°
2026-05-06 10:45 33.67293 -13.40451 35120 ft 455 kts 218°
2026-05-06 10:45 33.62090 -13.44771 35130 ft 454 kts 218°
2026-05-06 10:46 33.56883 -13.49078 35127 ft 454 kts 218°
2026-05-06 10:46 33.52558 -13.52657 35116 ft 455 kts 218°
2026-05-06 10:47 33.47341 -13.56962 35115 ft 456 kts 218°
2026-05-06 10:47 33.42118 -13.61278 35102 ft 456 kts 218°
2026-05-06 10:48 33.36896 -13.65582 35108 ft 456 kts 218°
2026-05-06 10:48 33.31669 -13.69882 35131 ft 456 kts 218°
2026-05-06 10:49 33.26442 -13.74169 35137 ft 455 kts 218°
2026-05-06 10:49 33.21249 -13.78431 35140 ft 455 kts 218°
2026-05-06 10:50 33.16016 -13.82714 35133 ft 455 kts 218°
2026-05-06 10:50 33.10794 -13.86979 35118 ft 455 kts 217°
2026-05-06 10:51 33.05558 -13.91230 35125 ft 455 kts 217°
2026-05-06 10:51 33.00317 -13.95475 35131 ft 455 kts 217°
2026-05-06 10:52 32.95072 -13.99714 35129 ft 455 kts 217°
2026-05-06 10:52 32.89828 -14.03945 35133 ft 455 kts 217°
2026-05-06 10:53 32.84595 -14.08168 35137 ft 454 kts 217°
2026-05-06 10:53 32.79381 -14.12382 35153 ft 452 kts 217°
2026-05-06 10:54 32.74212 -14.16545 35155 ft 451 kts 217°
2026-05-06 10:54 32.69012 -14.20709 35155 ft 451 kts 217°
2026-05-06 10:55 32.63820 -14.24868 35138 ft 450 kts 217°
2026-05-06 10:55 32.58628 -14.29028 35140 ft 450 kts 217°
2026-05-06 10:56 32.53435 -14.33178 35139 ft 450 kts 217°
2026-05-06 10:56 32.48237 -14.37338 35142 ft 450 kts 217°
2026-05-06 10:57 32.43039 -14.41476 35142 ft 450 kts 217°
2026-05-06 10:57 32.37844 -14.45611 35142 ft 450 kts 217°
2026-05-06 10:58 32.32652 -14.49749 35142 ft 450 kts 217°
2026-05-06 10:58 32.27461 -14.53878 35132 ft 450 kts 217°
2026-05-06 10:59 32.22262 -14.57996 35125 ft 450 kts 217°
2026-05-06 10:59 32.17090 -14.62095 35121 ft 450 kts 217°
2026-05-06 11:00 32.11873 -14.66225 35128 ft 450 kts 217°
2026-05-06 11:00 32.06659 -14.70333 35131 ft 450 kts 217°
2026-05-06 11:01 32.01478 -14.74421 35114 ft 450 kts 217°
2026-05-06 11:01 31.96263 -14.78534 35119 ft 450 kts 216°
2026-05-06 11:02 31.91050 -14.82632 35127 ft 450 kts 216°
2026-05-06 11:02 31.85838 -14.86725 35131 ft 450 kts 216°
2026-05-06 11:03 31.80623 -14.90812 35128 ft 450 kts 216°
2026-05-06 11:03 31.75407 -14.94897 35123 ft 451 kts 217°
2026-05-06 11:04 31.70189 -14.98979 35105 ft 451 kts 216°
2026-05-06 11:04 31.64989 -15.03042 35121 ft 451 kts 216°
2026-05-06 11:05 31.59754 -15.07128 35123 ft 451 kts 216°
2026-05-06 11:05 31.54524 -15.11198 35120 ft 451 kts 216°
2026-05-06 11:06 31.49282 -15.15267 35125 ft 451 kts 216°
2026-05-06 11:06 31.44044 -15.19337 35120 ft 451 kts 216°
2026-05-06 11:07 31.38803 -15.23405 35109 ft 452 kts 216°
2026-05-06 11:07 31.33559 -15.27464 35114 ft 452 kts 216°
2026-05-06 11:08 31.28264 -15.31467 35110 ft 453 kts 213°
2026-05-06 11:08 31.22781 -15.35040 35110 ft 455 kts 210°
2026-05-06 11:09 31.17157 -15.38462 35115 ft 455 kts 210°
2026-05-06 11:09 31.11568 -15.41925 35105 ft 455 kts 211°
2026-05-06 11:10 31.06013 -15.45471 35101 ft 455 kts 211°
2026-05-06 11:10 31.00462 -15.49037 35101 ft 456 kts 211°
2026-05-06 11:11 30.94894 -15.52576 35108 ft 456 kts 211°
2026-05-06 11:11 30.89316 -15.56106 35105 ft 456 kts 211°
2026-05-06 11:12 30.83738 -15.59630 35091 ft 456 kts 211°
2026-05-06 11:12 30.78207 -15.63122 35112 ft 454 kts 211°
2026-05-06 11:13 30.72641 -15.66641 35100 ft 455 kts 211°
2026-05-06 11:13 30.67070 -15.70145 35094 ft 456 kts 211°
2026-05-06 11:14 30.61482 -15.73659 35086 ft 456 kts 211°
2026-05-06 11:14 30.55896 -15.77175 35088 ft 457 kts 211°
2026-05-06 11:15 30.50307 -15.80688 35097 ft 456 kts 211°
2026-05-06 11:15 30.44731 -15.84184 35105 ft 455 kts 211°
2026-05-06 11:16 30.39200 -15.87647 35114 ft 454 kts 211°
2026-05-06 11:16 30.33635 -15.91125 35106 ft 454 kts 211°
2026-05-06 11:17 30.28074 -15.94595 35102 ft 454 kts 211°
2026-05-06 11:17 30.22520 -15.98056 35097 ft 453 kts 211°
2026-05-06 11:18 30.16964 -16.01514 35069 ft 454 kts 210°
2026-05-06 11:18 30.11384 -16.04987 35063 ft 456 kts 210°
2026-05-06 11:19 30.05783 -16.08472 35068 ft 457 kts 210°
2026-05-06 11:19 30.00168 -16.11956 35069 ft 458 kts 210°
2026-05-06 11:20 29.94549 -16.15438 35062 ft 458 kts 210°
2026-05-06 11:20 29.88933 -16.18917 35080 ft 458 kts 210°
2026-05-06 11:21 29.83355 -16.22358 35089 ft 458 kts 210°
2026-05-06 11:21 29.77738 -16.25827 35090 ft 457 kts 210°
2026-05-06 11:22 29.72128 -16.29285 35093 ft 458 kts 210°
2026-05-06 11:22 29.66518 -16.32735 35086 ft 457 kts 210°
2026-05-06 11:23 29.60908 -16.36189 35063 ft 458 kts 211°
2026-05-06 11:23 29.55780 -16.40451 35054 ft 456 kts 221°
2026-05-06 11:24 29.50870 -16.45091 35058 ft 457 kts 221°
2026-05-06 11:24 29.45952 -16.49729 35057 ft 458 kts 221°
2026-05-06 11:25 29.41021 -16.54378 35062 ft 459 kts 221°
2026-05-06 11:25 29.36082 -16.59022 35063 ft 459 kts 221°
2026-05-06 11:26 29.31167 -16.63626 35067 ft 458 kts 221°
2026-05-06 11:26 29.26238 -16.68247 35079 ft 458 kts 221°
2026-05-06 11:27 29.21299 -16.72870 35054 ft 459 kts 221°
2026-05-06 11:27 29.18806 -16.75200 34634 ft 463 kts 221°
2026-05-06 11:27 29.16309 -16.77535 34165 ft 464 kts 221°
2026-05-06 11:27 29.13803 -16.79883 33646 ft 467 kts 221°
2026-05-06 11:28 29.11285 -16.82241 33114 ft 467 kts 221°
2026-05-06 11:28 29.08773 -16.84594 32585 ft 467 kts 221°
2026-05-06 11:28 29.06264 -16.86944 32069 ft 466 kts 221°
2026-05-06 11:28 29.03755 -16.89287 31565 ft 465 kts 221°
2026-05-06 11:29 29.01286 -16.91585 31072 ft 462 kts 221°
2026-05-06 11:29 28.98801 -16.93891 30587 ft 459 kts 221°
2026-05-06 11:29 28.96328 -16.96188 30103 ft 457 kts 221°
2026-05-06 11:29 28.93863 -16.98479 29548 ft 456 kts 221°
2026-05-06 11:30 28.91400 -17.00770 28986 ft 457 kts 221°
2026-05-06 11:30 28.88934 -17.03063 28445 ft 458 kts 221°
2026-05-06 11:30 28.86479 -17.05341 27912 ft 452 kts 221°
2026-05-06 11:30 28.84050 -17.07591 27390 ft 448 kts 221°
2026-05-06 11:31 28.81638 -17.09820 26878 ft 445 kts 221°
2026-05-06 11:31 28.79244 -17.12029 26374 ft 441 kts 221°
2026-05-06 11:31 28.76873 -17.14222 25885 ft 437 kts 221°
2026-05-06 11:31 28.74521 -17.16399 25401 ft 433 kts 221°
2026-05-06 11:32 28.72190 -17.18552 24929 ft 430 kts 221°
2026-05-06 11:32 28.69877 -17.20689 24452 ft 426 kts 221°
2026-05-06 11:32 28.67584 -17.22808 23992 ft 423 kts 221°
2026-05-06 11:32 28.66079 -17.24200 23691 ft 422 kts 221°
2026-05-06 11:33 28.63761 -17.26345 23160 ft 434 kts 221°
2026-05-06 11:33 28.61415 -17.28513 22626 ft 434 kts 221°
2026-05-06 11:33 28.59072 -17.30674 22108 ft 432 kts 221°
2026-05-06 11:33 28.56742 -17.32822 21588 ft 430 kts 221°
2026-05-06 11:34 28.54428 -17.34951 21080 ft 427 kts 221°
2026-05-06 11:34 28.52124 -17.37067 20587 ft 424 kts 221°
2026-05-06 11:34 28.49835 -17.39171 20100 ft 422 kts 221°
2026-05-06 11:34 28.47419 -17.41053 19611 ft 422 kts 210°
2026-05-06 11:35 28.44680 -17.42261 19135 ft 424 kts 196°
2026-05-06 11:35 28.41754 -17.42695 18671 ft 426 kts 182°
2026-05-06 11:35 28.38805 -17.42317 18185 ft 428 kts 168°
2026-05-06 11:35 28.36014 -17.41157 17660 ft 429 kts 155°
2026-05-06 11:36 28.33348 -17.39651 17145 ft 427 kts 155°
2026-05-06 11:36 28.30704 -17.38155 16636 ft 423 kts 155°
2026-05-06 11:36 28.28082 -17.36671 16172 ft 419 kts 155°
2026-05-06 11:36 28.25476 -17.35199 15762 ft 417 kts 155°
2026-05-06 11:37 28.22881 -17.33736 15370 ft 414 kts 155°
2026-05-06 11:37 28.20305 -17.32291 14987 ft 412 kts 155°
2026-05-06 11:37 28.17745 -17.30862 14608 ft 409 kts 155°
2026-05-06 11:37 28.15194 -17.29438 14230 ft 407 kts 155°
2026-05-06 11:38 28.12666 -17.28023 13849 ft 404 kts 155°
2026-05-06 11:38 28.10158 -17.26615 13435 ft 401 kts 155°
2026-05-06 11:38 28.07666 -17.25216 12963 ft 398 kts 155°
2026-05-06 11:38 28.05219 -17.23846 12510 ft 396 kts 155°
2026-05-06 11:39 28.02762 -17.22472 12061 ft 393 kts 155°
2026-05-06 11:39 28.00319 -17.21107 11587 ft 389 kts 155°
2026-05-06 11:39 27.97905 -17.19759 11108 ft 384 kts 155°
2026-05-06 11:39 27.95527 -17.18430 10620 ft 375 kts 155°
2026-05-06 11:40 27.93264 -17.17163 10183 ft 350 kts 155°
2026-05-06 11:40 27.91175 -17.15998 10044 ft 319 kts 156°
2026-05-06 11:40 27.89213 -17.14992 9987 ft 306 kts 158°
2026-05-06 11:40 27.87305 -17.13954 9693 ft 304 kts 146°
2026-05-06 11:41 27.85874 -17.12240 9337 ft 302 kts 118°
2026-05-06 11:41 27.85286 -17.10002 8977 ft 298 kts 91°
2026-05-06 11:41 27.85635 -17.07736 8627 ft 293 kts 66°
2026-05-06 11:41 27.86437 -17.05621 8273 ft 292 kts 65°
2026-05-06 11:42 27.87244 -17.03509 7852 ft 292 kts 65°
2026-05-06 11:42 27.88046 -17.01399 7431 ft 292 kts 65°
2026-05-06 11:42 27.88842 -16.99284 7031 ft 292 kts 65°
2026-05-06 11:42 27.89633 -16.97174 6630 ft 292 kts 65°
2026-05-06 11:43 27.90416 -16.95077 6218 ft 291 kts 66°
2026-05-06 11:43 27.91203 -16.92969 5781 ft 290 kts 66°
2026-05-06 11:43 27.91988 -16.90868 5351 ft 289 kts 66°
2026-05-06 11:44 27.93471 -16.86901 4512 ft 258 kts 66°
2026-05-06 11:44 27.94170 -16.85088 4149 ft 247 kts 64°
2026-05-06 11:44 27.94874 -16.83360 3991 ft 237 kts 64°
2026-05-06 11:44 27.95570 -16.81680 3835 ft 235 kts 63°
2026-05-06 11:45 27.96255 -16.80030 3579 ft 229 kts 63°
2026-05-06 11:45 27.96920 -16.78422 3358 ft 223 kts 64°
2026-05-06 11:45 27.97565 -16.76845 3130 ft 216 kts 65°
2026-05-06 11:45 27.98142 -16.75297 3016 ft 212 kts 66°
2026-05-06 11:46 27.98687 -16.73755 2909 ft 211 kts 67°
2026-05-06 11:46 27.99224 -16.72220 2682 ft 210 kts 67°
2026-05-06 11:46 27.99753 -16.70706 2412 ft 200 kts 67°
2026-05-06 11:46 28.00236 -16.69322 2168 ft 177 kts 66°
2026-05-06 11:47 28.00669 -16.68082 1947 ft 163 kts 66°
2026-05-06 11:47 28.01070 -16.66934 1734 ft 151 kts 65°
2026-05-06 11:47 28.01440 -16.65874 1527 ft 144 kts 68°
2026-05-06 11:47 28.01801 -16.64839 1355 ft 141 kts 67°
2026-05-06 11:48 28.02159 -16.63815 1192 ft 137 kts 66°
2026-05-06 11:48 28.02511 -16.62802 954 ft 141 kts 70°
2026-05-06 11:48 28.02874 -16.61797 820 ft 137 kts 70°
2026-05-06 11:48 28.03214 -16.60790 634 ft 134 kts 71°
2026-05-06 11:49 28.03562 -16.59806 417 ft 134 kts 71°
2026-05-06 11:49 28.03906 -16.58818 238 ft 135 kts 70°
2026-05-06 11:49 28.04222 -16.57889 202 ft 114 kts 69°
2026-05-06 11:49 28.04407 -16.57365 204 ft 28 kts 68°
2026-05-06 11:50 28.04472 -16.57182 201 ft 29 kts 68°
2026-05-06 11:50 28.04583 -16.56963 203 ft 36 kts 48°
2026-05-06 11:50 28.04720 -16.56802 218 ft 16 kts 30°
2026-05-06 11:50 28.04778 -16.56840 219 ft 10 kts 276°
2026-05-06 11:51 28.04760 -16.56908 223 ft 8 kts 248°
2026-05-06 11:51 28.04741 -16.56959 222 ft 6 kts 248°
2026-05-06 11:51 28.04728 -16.56995 221 ft 4 kts 248°
2026-05-06 11:51 28.04720 -16.57017 223 ft 2 kts 248°
2026-05-06 11:52 28.04717 -16.57027 223 ft 1 kts 248°
2026-05-06 11:52 28.04716 -16.57029 223 ft 1 kts 248°
2026-05-06 11:52 28.04695 -16.57092 222 ft 14 kts 255°
2026-05-06 11:52 28.04740 -16.57167 223 ft 11 kts 335°
2026-05-06 11:53 28.04780 -16.57220 224 ft 8 kts 274°
2026-05-06 11:53 28.04758 -16.57301 225 ft 18 kts 248°
2026-05-06 11:53 28.04706 -16.57446 225 ft 17 kts 248°
2026-05-06 11:53 28.04677 -16.57508 226 ft 7 kts 246°
2026-05-06 11:54 28.04661 -16.57558 224 ft 6 kts 251°
2026-05-06 11:54 28.04664 -16.57595 225 ft 4 kts 307°
2026-05-06 11:54 28.04680 -16.57607 226 ft 2 kts 330°
2026-05-06 11:54 28.04694 -16.57614 226 ft 3 kts 337°
2026-05-06 11:55 28.04716 -16.57624 227 ft 2 kts 339°
2026-05-06 11:55 28.04725 -16.57628 226 ft 1 kts 339°
2026-05-06 11:55 28.04726 -16.57628 226 ft 0 kts 339°